Date String (YYYY-MM-DD hh:mm:ss) UTC,Instrument flags,absolute air pressure of the measurement (hPa),sample flow rate (lpm),inlet stack bypass flow (lpm),air temperature of the measurement (°C),ambient temperature measured by the external sensor (°C),aerosol sample conditioner tube jacket temperature (°C),OPC LED temperature (°C),internal box temperature (°C),relative humidity of the measurement (%),span deviation,mass concentration of particles derived from Lorenz-Mie calculation of OPC scattering (μg/m³),mass concentration of particles derived from Lorenz-Mie calculation of OPC scattering (μg/m³),mass concentration of particles derived from Lorenz-Mie calculation of OPC scattering (μg/m³)
DateTimeUTC,F1_M11,P_M11,Q1_M11,Q2_M11,T1_M11,T2_M11,T3_M11,T4_M11,T5_M11,U1_M11,ZSPAN_M11,X0_M11,X2_M11,X1_M11
2024-02-29 23:00:00,SystemResetWarning,0823.0,5.01,000.00,025.4,024.6,000.0,033.6,027.1,05.5,0000.0,0007.31,0002.63,0001.47
2024-02-29 23:01:00,SystemResetWarning,0823.0,5.01,000.00,025.4,024.6,000.0,033.6,027.1,05.6,0000.0,0007.15,0002.58,0001.49
2024-02-29 23:02:00,SystemResetWarning,0823.0,5.00,000.00,025.4,024.6,000.0,033.6,027.1,05.6,0000.0,0006.47,0002.60,0001.52
2024-02-29 23:03:00,SystemResetWarning,0822.9,4.99,000.00,025.4,024.6,000.0,033.6,027.2,05.6,0000.0,0005.08,0002.60,0001.54
2024-02-29 23:04:00,SystemResetWarning,0823.0,4.99,000.00,025.4,024.6,000.0,033.6,027.2,05.5,0000.0,0005.22,0002.60,0001.53
2024-02-29 23:05:00,SystemResetWarning,0823.0,5.00,000.00,025.4,024.6,000.0,033.7,027.2,05.5,0000.0,0005.44,0002.69,0001.55
2024-02-29 23:06:00,SystemResetWarning,0823.1,5.00,000.00,025.4,024.6,000.0,033.7,027.1,05.6,0000.0,0006.23,0002.69,0001.59
2024-02-29 23:07:00,SystemResetWarning,0823.1,5.01,000.00,025.4,024.6,000.0,033.7,027.1,05.6,0000.0,0006.83,0002.68,0001.59
2024-02-29 23:08:00,SystemResetWarning,0823.0,5.01,000.00,025.4,024.6,000.0,033.7,027.2,05.5,0000.0,0007.27,0002.72,0001.59
2024-02-29 23:09:00,SystemResetWarning,0823.0,5.01,000.00,025.4,024.6,000.0,033.7,027.2,05.4,0000.0,0007.35,0002.68,0001.59
2024-02-29 23:10:00,SystemResetWarning,0823.2,5.00,000.00,025.4,024.7,000.0,033.7,027.2,05.5,0000.0,0007.38,0002.70,0001.59
2024-02-29 23:11:00,SystemResetWarning,0823.2,4.99,000.00,025.5,024.7,000.0,033.7,027.2,05.5,0000.0,0007.41,0002.71,0001.57
2024-02-29 23:12:00,SystemResetWarning,0823.1,5.00,000.00,025.5,024.7,000.0,033.7,027.2,05.5,0000.0,0007.48,0002.72,0001.56
2024-02-29 23:13:00,SystemResetWarning,0823.1,5.01,000.00,025.5,024.7,000.0,033.7,027.2,05.3,0000.0,0007.43,0002.69,0001.55
2024-02-29 23:14:00,SystemResetWarning,0823.0,5.01,000.00,025.5,024.7,000.0,033.7,027.2,05.4,0000.0,0007.72,0002.69,0001.54
2024-02-29 23:15:00,SystemResetWarning,0823.1,4.99,000.00,025.5,024.7,000.0,033.7,027.2,05.4,0000.0,0008.34,0002.68,0001.56
2024-02-29 23:16:00,SystemResetWarning,0823.1,4.99,000.00,025.5,024.7,000.0,033.7,027.2,05.4,0000.0,0008.43,0002.67,0001.56
2024-02-29 23:17:00,SystemResetWarning,0823.0,5.00,000.00,025.5,024.7,000.0,033.7,027.3,05.4,0000.0,0008.10,0002.58,0001.53
2024-02-29 23:18:00,SystemResetWarning,0823.1,5.00,000.00,025.5,024.7,000.0,033.7,027.3,05.4,0000.0,0007.69,0002.59,0001.53
2024-02-29 23:19:00,SystemResetWarning,0823.1,5.01,000.00,025.5,024.7,000.0,033.8,027.3,05.5,0000.0,0007.12,0002.48,0001.51
2024-02-29 23:20:00,SystemResetWarning,0823.0,5.01,000.00,025.5,024.7,000.0,033.8,027.3,05.3,0000.0,0006.82,0002.45,0001.51
2024-02-29 23:21:00,SystemResetWarning,0823.1,5.00,000.00,025.5,024.7,000.0,033.8,027.3,05.4,0000.0,0006.99,0002.48,0001.52
2024-02-29 23:22:00,SystemResetWarning,0823.1,4.99,000.00,025.5,024.7,000.0,033.8,027.3,05.5,0000.0,0007.10,0002.50,0001.56
2024-02-29 23:23:00,SystemResetWarning,0823.1,4.99,000.00,025.5,024.7,000.0,033.8,027.3,05.4,0000.0,0007.57,0002.60,0001.60
2024-02-29 23:24:00,SystemResetWarning,0823.1,5.00,000.00,025.5,024.7,000.0,033.8,027.3,05.4,0000.0,0007.70,0002.67,0001.63
2024-02-29 23:25:00,SystemResetWarning,0823.1,5.01,000.00,025.5,024.7,000.0,033.8,027.3,05.4,0000.0,0007.70,0002.75,0001.66
2024-02-29 23:26:00,SystemResetWarning,0823.1,5.01,000.00,025.5,024.7,000.0,033.8,027.3,05.5,0000.0,0006.34,0002.76,0001.69
2024-02-29 23:27:00,SystemResetWarning,0823.2,5.00,000.00,025.5,024.7,000.0,033.8,027.3,05.6,0000.0,0006.60,0002.81,0001.72
2024-02-29 23:28:00,SystemResetWarning,0823.1,5.00,000.00,025.5,024.7,000.0,033.8,027.3,05.6,0000.0,0007.31,0002.90,0001.75
2024-02-29 23:29:00,SystemResetWarning,0823.2,4.99,000.00,025.5,024.7,000.0,033.8,027.3,05.5,0000.0,0007.44,0003.04,0001.77
2024-02-29 23:30:00,SystemResetWarning,0823.2,5.00,000.00,025.5,024.7,000.0,033.8,027.3,05.5,0000.0,0007.52,0003.09,0001.80
2024-02-29 23:31:00,SystemResetWarning,0823.2,5.00,000.00,025.6,024.8,000.0,033.8,027.3,05.4,0000.0,0007.59,0003.13,0001.82
2024-02-29 23:32:00,SystemResetWarning,0823.3,5.01,000.00,025.6,024.7,000.0,033.8,027.3,05.5,0000.0,0007.59,0003.14,0001.83
2024-02-29 23:33:00,SystemResetWarning,0823.3,5.01,000.00,025.6,024.8,000.0,033.8,027.3,05.6,0000.0,0007.55,0003.13,0001.82
2024-02-29 23:34:00,SystemResetWarning,0823.3,4.99,000.00,025.6,024.8,000.0,033.8,027.3,05.6,0000.0,0007.15,0003.11,0001.80
2024-02-29 23:35:00,SystemResetWarning,0823.3,4.99,000.00,025.6,024.8,000.0,033.8,027.3,05.5,0000.0,0007.36,0003.15,0001.79
2024-02-29 23:36:00,SystemResetWarning,0823.4,4.99,000.00,025.6,024.8,000.0,033.8,027.4,05.5,0000.0,0007.30,0003.15,0001.79
2024-02-29 23:37:00,SystemResetWarning,0823.3,5.00,000.00,025.6,024.8,000.0,033.8,027.4,05.5,0000.0,0007.47,0003.22,0001.80
2024-02-29 23:38:00,SystemResetWarning,0823.4,5.00,000.00,025.6,024.8,000.0,033.8,027.4,05.5,0000.0,0007.34,0003.26,0001.79
2024-02-29 23:39:00,SystemResetWarning,0823.3,5.00,000.00,025.6,024.8,000.0,033.8,027.4,05.6,0000.0,0006.60,0003.26,0001.79
2024-02-29 23:40:00,SystemResetWarning,0823.3,5.01,000.00,025.6,024.8,000.0,033.8,027.4,05.5,0000.0,0006.48,0003.19,0001.78
2024-02-29 23:41:00,SystemResetWarning,0823.3,5.00,000.00,025.6,024.8,000.0,033.9,027.4,05.5,0000.0,0006.81,0003.20,0001.76
2024-02-29 23:42:00,SystemResetWarning,0823.3,5.00,000.00,025.6,024.8,000.0,033.9,027.4,05.5,0000.0,0006.67,0003.17,0001.74
2024-02-29 23:43:00,SystemResetWarning,0823.4,4.99,000.00,025.6,024.8,000.0,033.9,027.4,05.6,0000.0,0006.60,0003.15,0001.73
2024-02-29 23:44:00,SystemResetWarning,0823.4,5.00,000.00,025.6,024.8,000.0,033.9,027.4,05.6,0000.0,0006.69,0003.18,0001.74
2024-02-29 23:45:00,SystemResetWarning,0823.4,5.00,000.00,025.6,024.9,000.0,033.9,027.4,05.5,0000.0,0007.04,0003.23,0001.76
2024-02-29 23:46:00,SystemResetWarning,0823.3,5.00,000.00,025.6,024.8,000.0,033.9,027.4,05.6,0000.0,0006.64,0003.17,0001.77
2024-02-29 23:47:00,SystemResetWarning,0823.4,5.00,000.00,025.6,024.8,000.0,033.9,027.4,05.6,0000.0,0006.64,0003.17,0001.79
2024-02-29 23:48:00,SystemResetWarning,0823.4,5.00,000.00,025.6,024.8,000.0,033.9,027.4,05.5,0000.0,0006.55,0003.13,0001.76
2024-02-29 23:49:00,SystemResetWarning,0823.4,5.00,000.00,025.6,024.8,000.0,033.9,027.4,05.5,0000.0,0006.47,0003.10,0001.77
2024-02-29 23:50:00,SystemResetWarning,0823.4,4.99,000.00,025.7,024.8,000.0,033.9,027.4,05.5,0000.0,0006.57,0003.09,0001.77
2024-02-29 23:51:00,SystemResetWarning,0823.4,5.01,000.00,025.7,024.8,000.0,033.9,027.4,05.4,0000.0,0006.89,0003.14,0001.79
2024-02-29 23:52:00,SystemResetWarning,0823.4,5.00,000.00,025.7,024.8,000.0,033.9,027.4,05.5,0000.0,0007.38,0003.17,0001.82
2024-02-29 23:53:00,SystemResetWarning,0823.4,5.01,000.00,025.6,024.8,000.0,033.9,027.4,05.5,0000.0,0007.46,0003.21,0001.84
2024-02-29 23:54:00,SystemResetWarning,0823.4,5.00,000.00,025.6,024.8,000.0,033.9,027.4,05.5,0000.0,0007.51,0003.26,0001.86
2024-02-29 23:55:00,SystemResetWarning,0823.4,5.00,000.00,025.6,024.8,000.0,033.9,027.4,05.7,0000.0,0007.36,0003.21,0001.86
2024-02-29 23:56:00,SystemResetWarning,0823.4,5.00,000.00,025.6,024.8,000.0,033.9,027.4,05.8,0000.0,0006.88,0003.12,0001.83
2024-02-29 23:57:00,SystemResetWarning,0823.4,5.00,000.00,025.6,024.8,000.0,033.9,027.4,05.7,0000.0,0006.77,0003.11,0001.83
2024-02-29 23:58:00,SystemResetWarning,0823.4,5.00,000.00,025.6,024.8,000.0,033.9,027.4,05.5,0000.0,0006.63,0003.05,0001.81
2024-02-29 23:59:00,SystemResetWarning,0823.5,5.00,000.00,025.6,024.7,000.0,033.9,027.4,05.5,0000.0,0006.45,0002.99,0001.81
